| time (UTC) | temp F | wind direction | speed MPH | gust MPH | rain 1hr in | rain 24hr in | rain mn in | humidity % | barometer mb |
| 20260502163005 | 55 | 292 | 2.0 | 9.0 | 0.00 | 0.01 | 0.00 | 46 | 1015.6 |
| 20260502162505 | 55 | 28 | 3.0 | 14.0 | 0.00 | 0.01 | 0.00 | 47 | 1015.7 |
| 20260502162004 | 55 | 268 | 3.0 | 14.0 | 0.00 | 0.01 | 0.00 | 47 | 1015.6 |
| 20260502161500 | 55 | 272 | 3.0 | 9.0 | 0.00 | 0.01 | 0.00 | 47 | 1015.5 |
| 20260502160955 | 55 | 266 | 3.0 | 12.0 | 0.00 | 0.01 | 0.00 | 47 | 1015.7 |
| 20260502160449 | 55 | 315 | 3.0 | 15.0 | 0.00 | 0.01 | 0.00 | 45 | 1015.8 |
| 20260502160248 | 55 | 263 | 3.0 | 14.0 | 0.00 | 0.01 | 0.00 | 48 | 1015.7 |
| 20260502152227 | 54 | 234 | 2.0 | 9.0 | 0.00 | 0.01 | 0.00 | 51 | 1015.9 |
| 20260502151437 | 53 | 286 | 2.0 | 9.0 | 0.00 | 0.01 | 0.00 | 50 | 1015.8 |
| 20260502150932 | 54 | 276 | 3.0 | 11.0 | 0.00 | 0.01 | 0.00 | 51 | 1016.0 |
| 20260502150431 | 54 | 348 | 3.0 | 11.0 | 0.00 | 0.01 | 0.00 | 49 | 1016.0 |
| 20260502130724 | 49 | 279 | 2.0 | 8.0 | 0.00 | 0.01 | 0.00 | 66 | 1015.7 |
| 20260502123430 | 48 | 292 | 3.0 | 9.0 | 0.00 | 0.01 | 0.00 | 68 | 1015.7 |
| 20260502122932 | 48 | 243 | 2.0 | 9.0 | 0.00 | 0.01 | 0.00 | 68 | 1015.8 |
| 20260502122430 | 48 | 267 | 3.0 | 12.0 | 0.00 | 0.01 | 0.00 | 68 | 1015.8 |
| 20260502121931 | 48 | 279 | 3.0 | 12.0 | 0.00 | 0.01 | 0.00 | 68 | 1015.8 |
| 20260502121432 | 48 | 268 | 3.0 | 16.0 | 0.00 | 0.01 | 0.00 | 69 | 1015.8 |
| 20260502121221 | 47 | 277 | 5.0 | 16.0 | 0.00 | 0.01 | 0.00 | 68 | 1015.8 |
| 20260502120432 | 47 | 269 | 4.0 | 16.0 | 0.00 | 0.01 | 0.00 | 69 | 1015.7 |
| 20260502115932 | 47 | 282 | 3.0 | 15.0 | 0.00 | 0.01 | 0.00 | 68 | 1015.8 |
| 20260502115430 | 47 | 0 | 3.0 | 16.0 | 0.00 | 0.01 | 0.00 | 69 | 1015.8 |
| 20260502114930 | 47 | 287 | 3.0 | 16.0 | 0.00 | 0.01 | 0.00 | 69 | 1015.7 |
| 20260502114430 | 47 | 273 | 3.0 | 11.0 | 0.00 | 0.01 | 0.00 | 69 | 1015.8 |
| 20260502113931 | 47 | 312 | 3.0 | 16.0 | 0.00 | 0.01 | 0.00 | 68 | 1015.8 |
| 20260502113434 | 47 | 353 | 3.0 | 16.0 | 0.00 | 0.01 | 0.00 | 68 | 1015.8 |
| 20260502112931 | 47 | 281 | 4.0 | 12.0 | 0.00 | 0.01 | 0.00 | 68 | 1015.8 |
| 20260502112433 | 47 | 172 | 4.0 | 14.0 | 0.00 | 0.01 | 0.00 | 68 | 1015.7 |
| 20260502111932 | 47 | 305 | 4.0 | 14.0 | 0.00 | 0.01 | 0.00 | 68 | 1015.8 |
| 20260502111430 | 47 | 285 | 4.0 | 15.0 | 0.00 | 0.01 | 0.00 | 67 | 1015.9 |
| 20260502111222 | 47 | 241 | 4.0 | 20.0 | 0.00 | 0.01 | 0.00 | 67 | 1015.8 |
| 20260502110430 | 48 | 285 | 5.0 | 20.0 | 0.00 | 0.01 | 0.00 | 66 | 1015.6 |
| 20260502105930 | 48 | 296 | 5.0 | 19.0 | 0.00 | 0.01 | 0.00 | 66 | 1015.5 |
| 20260502105430 | 48 | 250 | 5.0 | 15.0 | 0.00 | 0.01 | 0.00 | 66 | 1015.5 |
| 20260502104933 | 48 | 255 | 4.0 | 15.0 | 0.00 | 0.01 | 0.00 | 65 | 1015.5 |
| 20260502104431 | 48 | 270 | 3.0 | 14.0 | 0.00 | 0.01 | 0.00 | 65 | 1015.5 |
| 20260502103931 | 48 | 309 | 4.0 | 14.0 | 0.00 | 0.01 | 0.00 | 65 | 1015.4 |
| 20260502103431 | 48 | 309 | 4.0 | 14.0 | 0.00 | 0.01 | 0.00 | 64 | 1015.4 |
| 20260502102930 | 49 | 340 | 3.0 | 14.0 | 0.00 | 0.01 | 0.00 | 64 | 1015.4 |
| 20260502102430 | 49 | 236 | 3.0 | 16.0 | 0.00 | 0.01 | 0.00 | 64 | 1015.4 |
| 20260502101930 | 49 | 274 | 3.0 | 16.0 | 0.00 | 0.01 | 0.00 | 64 | 1015.3 |
| 20260502101731 | 49 | 343 | 3.0 | 14.0 | 0.00 | 0.01 | 0.00 | 63 | 1015.2 |
| 20260502100921 | 49 | 277 | 3.0 | 15.0 | 0.00 | 0.01 | 0.00 | 64 | 1015.3 |
| 20260502100417 | 49 | 242 | 3.0 | 15.0 | 0.00 | 0.01 | 0.00 | 63 | 1015.1 |
| 20260502091414 | 50 | 340 | 2.0 | 7.0 | 0.00 | 0.01 | 0.00 | 66 | 1014.2 |
| 20260502090912 | 51 | 265 | 2.0 | 7.0 | 0.00 | 0.01 | 0.00 | 66 | 1014.3 |
| 20260502090409 | 51 | 11 | 2.0 | 8.0 | 0.00 | 0.01 | 0.00 | 64 | 1014.1 |
| 20260502071406 | 52 | 305 | 1.0 | 4.0 | 0.00 | 0.01 | 0.00 | 75 | 1014.1 |
| 20260502071158 | 52 | 54 | 1.0 | 4.0 | 0.00 | 0.01 | 0.00 | 74 | 1014.0 |
| 20260502070404 | 52 | 248 | 1.0 | 3.0 | 0.00 | 0.01 | 0.00 | 74 | 1014.1 |
| 20260502065905 | 52 | 326 | 1.0 | 9.0 | 0.00 | 0.01 | 0.00 | 74 | 1013.9 |
| 20260502065402 | 52 | 54 | 2.0 | 9.0 | 0.00 | 0.01 | 0.00 | 74 | 1013.8 |
| 20260502065200 | 52 | 326 | 1.0 | 5.0 | 0.00 | 0.01 | 0.00 | 73 | 1013.8 |
| 20260502064402 | 53 | 273 | 2.0 | 5.0 | 0.00 | 0.01 | 0.00 | 74 | 1013.7 |
| 20260502063902 | 53 | 255 | 2.0 | 4.0 | 0.00 | 0.01 | 0.00 | 74 | 1013.7 |
| 20260502063402 | 53 | 11 | 2.0 | 9.0 | 0.00 | 0.01 | 0.00 | 74 | 1013.7 |
| 20260502062902 | 53 | 345 | 1.0 | 9.0 | 0.00 | 0.01 | 0.00 | 75 | 1013.7 |
| 20260502062402 | 53 | 261 | 1.0 | 4.0 | 0.00 | 0.01 | 0.00 | 76 | 1014.0 |
| 20260502061957 | 53 | 326 | 1.0 | 5.0 | 0.00 | 0.01 | 0.00 | 77 | 1014.1 |
| 20260502061937 | 53 | 271 | 1.0 | 5.0 | 0.00 | 0.01 | 0.00 | 75 | 1014.0 |
| 20260502060901 | 53 | 340 | 1.0 | 7.0 | 0.00 | 0.01 | 0.00 | 77 | 1014.3 |
| 20260502060402 | 53 | 260 | 2.0 | 8.0 | 0.00 | 0.01 | 0.00 | 78 | 1014.4 |
| 20260502055902 | 53 | 261 | 2.0 | 8.0 | 0.00 | 0.01 | 0.00 | 78 | 1014.4 |
| 20260502055657 | 53 | 248 | 1.0 | 7.0 | 0.00 | 0.01 | 0.00 | 81 | 1014.5 |
| 20260502054901 | 53 | 300 | 1.0 | 7.0 | 0.00 | 0.01 | 0.00 | 82 | 1014.4 |
| 20260502054402 | 53 | 326 | 1.0 | 5.0 | 0.00 | 0.01 | 0.00 | 85 | 1014.3 |
| 20260502053902 | 53 | 143 | 1.0 | 5.0 | 0.00 | 0.01 | 0.00 | 86 | 1014.5 |
| 20260502053357 | 53 | 273 | 1.0 | 4.0 | 0.00 | 0.01 | 0.00 | 88 | 1014.5 |
| 20260502053150 | 53 | 353 | 1.0 | 3.0 | 0.00 | 0.01 | 0.00 | 88 | 1014.3 |
| 20260502052345 | 53 | 261 | 1.0 | 3.0 | 0.00 | 0.01 | 0.00 | 89 | 1014.4 |
| 20260502051839 | 53 | 279 | 1.0 | 3.0 | 0.00 | 0.01 | 0.00 | 89 | 1014.4 |
| 20260502051332 | 53 | 251 | 0.0 | 3.0 | 0.00 | 0.01 | 0.00 | 88 | 1014.4 |
| 20260502050829 | 53 | 11 | 0.0 | 1.0 | 0.00 | 0.01 | 0.00 | 88 | 1014.3 |
| 20260502050330 | 54 | 54 | 0.0 | 1.0 | 0.00 | 0.01 | 0.00 | 88 | 1014.3 |
| 20260502050127 | 54 | 326 | 0.0 | 1.0 | 0.00 | 0.01 | 0.00 | 88 | 1014.4 |
| 20260502045332 | 54 | 100 | 0.0 | 1.0 | 0.00 | 0.01 | 0.00 | 88 | 1014.3 |
| 20260502044831 | 54 | 143 | 0.0 | 1.0 | 0.00 | 0.01 | 0.00 | 87 | 1014.4 |
| 20260502044331 | 54 | 100 | 0.0 | 1.0 | 0.00 | 0.01 | 0.00 | 86 | 1014.2 |
| 20260502043830 | 54 | 116 | 0.0 | 1.0 | 0.00 | 0.01 | 0.00 | 85 | 1014.3 |
| 20260502043331 | 54 | 54 | 1.0 | 3.0 | 0.00 | 0.01 | 0.00 | 83 | 1014.2 |
| 20260502042830 | 53 | 100 | 1.0 | 3.0 | 0.01 | 0.01 | 0.00 | 85 | 1014.2 |
| 20260502042329 | 53 | 309 | 1.0 | 3.0 | 0.01 | 0.01 | 0.00 | 85 | 1014.2 |
| 20260502041832 | 53 | 73 | 1.0 | 3.0 | 0.01 | 0.01 | 0.00 | 86 | 1014.2 |
| 20260502041329 | 53 | 326 | 1.0 | 3.0 | 0.01 | 0.01 | 0.00 | 85 | 1014.1 |
| 20260502041123 | 53 | 345 | 1.0 | 4.0 | 0.01 | 0.01 | 0.00 | 86 | 1014.1 |
| 20260502040329 | 53 | 11 | 1.0 | 5.0 | 0.01 | 0.01 | 0.00 | 86 | 1014.1 |
| 20260502040123 | 53 | 143 | 1.0 | 5.0 | 0.01 | 0.01 | 0.01 | 85 | 1014.0 |
| 20260502035326 | 53 | 234 | 1.0 | 3.0 | 0.01 | 0.01 | 0.01 | 84 | 1013.8 |
| 20260502034820 | 54 | 11 | 1.0 | 4.0 | 0.01 | 0.01 | 0.01 | 81 | 1013.7 |
| 20260502034318 | 54 | 11 | 1.0 | 4.0 | 0.01 | 0.01 | 0.01 | 80 | 1013.7 |
| 20260502033808 | 55 | 326 | 1.0 | 4.0 | 0.01 | 0.01 | 0.01 | 77 | 1013.8 |
| 20260502033303 | 56 | 105 | 1.0 | 4.0 | 0.01 | 0.01 | 0.00 | 72 | 1013.7 |
| 20260502032804 | 57 | 110 | 0.0 | 3.0 | 0.00 | 0.00 | 0.00 | 67 | 1013.7 |
| 20260502032305 | 57 | 11 | 0.0 | 1.0 | 0.00 | 0.00 | 0.00 | 63 | 1013.7 |
| 20260502031803 | 58 | 54 | 0.0 | 1.0 | 0.00 | 0.00 | 0.00 | 62 | 1013.5 |
| 20260502031304 | 58 | 54 | 0.0 | 1.0 | 0.00 | 0.00 | 0.00 | 61 | 1013.3 |
| 20260502031051 | 58 | 353 | 1.0 | 3.0 | 0.00 | 0.00 | 0.00 | 62 | 1013.3 |
| 20260502030302 | 58 | 54 | 1.0 | 3.0 | 0.00 | 0.00 | 0.00 | 60 | 1013.1 |
| 20260502030056 | 58 | 251 | 1.0 | 3.0 | 0.00 | 0.00 | 0.00 | 58 | 1012.9 |
| 20260502025302 | 58 | 279 | 1.0 | 3.0 | 0.00 | 0.00 | 0.00 | 57 | 1012.7 |
| 20260502024802 | 58 | 54 | 1.0 | 3.0 | 0.00 | 0.00 | 0.00 | 57 | 1012.7 |
| 20260502024303 | 58 | 54 | 1.0 | 3.0 | 0.00 | 0.00 | 0.00 | 57 | 1012.8 |
| 20260502023802 | 58 | 54 | 1.0 | 3.0 | 0.00 | 0.00 | 0.00 | 57 | 1012.7 |
| 20260502023306 | 59 | 54 | 1.0 | 3.0 | 0.00 | 0.00 | 0.00 | 56 | 1012.8 |
| 20260502022802 | 59 | 11 | 1.0 | 3.0 | 0.00 | 0.00 | 0.00 | 55 | 1012.8 |
| 20260502022306 | 59 | 73 | 1.0 | 3.0 | 0.00 | 0.00 | 0.00 | 54 | 1012.8 |
| 20260502021801 | 60 | 100 | 1.0 | 3.0 | 0.00 | 0.00 | 0.00 | 53 | 1012.7 |
| 20260502021305 | 60 | 143 | 1.0 | 3.0 | 0.00 | 0.00 | 0.00 | 53 | 1012.9 |
| 20260502020804 | 60 | 270 | 1.0 | 3.0 | 0.00 | 0.00 | 0.00 | 53 | 1012.9 |
| 20260502020303 | 60 | 73 | 1.0 | 3.0 | 0.00 | 0.00 | 0.00 | 51 | 1012.9 |
| 20260502015803 | 60 | 100 | 1.0 | 3.0 | 0.00 | 0.00 | 0.00 | 51 | 1012.9 |
| 20260502015553 | 60 | 353 | 1.0 | 3.0 | 0.00 | 0.00 | 0.00 | 51 | 1012.8 |
| 20260502014801 | 61 | 54 | 1.0 | 3.0 | 0.00 | 0.00 | 0.00 | 49 | 1012.7 |
| 20260502014303 | 61 | 82 | 1.0 | 3.0 | 0.00 | 0.00 | 0.00 | 48 | 1012.7 |
| 20260502013801 | 61 | 143 | 1.0 | 4.0 | 0.00 | 0.00 | 0.00 | 48 | 1012.6 |
| 20260502013301 | 61 | 11 | 1.0 | 4.0 | 0.00 | 0.00 | 0.00 | 48 | 1012.4 |
| 20260502012805 | 61 | 82 | 1.0 | 3.0 | 0.00 | 0.00 | 0.00 | 47 | 1012.4 |
| 20260502012302 | 61 | 54 | 1.0 | 3.0 | 0.00 | 0.00 | 0.00 | 47 | 1012.2 |
| 20260502012052 | 61 | 69 | 1.0 | 4.0 | 0.00 | 0.00 | 0.00 | 48 | 1012.2 |
| 20260502011301 | 61 | 41 | 1.0 | 4.0 | 0.00 | 0.00 | 0.00 | 47 | 1012.0 |
| 20260502011100 | 61 | 117 | 1.0 | 3.0 | 0.00 | 0.00 | 0.00 | 47 | 1012.0 |
| 20260502010302 | 61 | 28 | 1.0 | 3.0 | 0.00 | 0.00 | 0.00 | 47 | 1011.9 |
| 20260502005802 | 62 | 353 | 1.0 | 3.0 | 0.00 | 0.00 | 0.00 | 47 | 1011.8 |
| 20260502005256 | 62 | 117 | 1.0 | 3.0 | 0.00 | 0.00 | 0.00 | 47 | 1011.8 |
| 20260502004749 | 62 | 89 | 1.0 | 5.0 | 0.00 | 0.00 | 0.00 | 46 | 1011.6 |
| 20260502004249 | 62 | 28 | 1.0 | 5.0 | 0.00 | 0.00 | 0.00 | 46 | 1011.6 |
| 20260502004042 | 62 | 92 | 1.0 | 4.0 | 0.00 | 0.00 | 0.00 | 47 | 1011.5 |
| 20260502003248 | 62 | 54 | 1.0 | 5.0 | 0.00 | 0.00 | 0.00 | 46 | 1011.5 |
| 20260502002749 | 62 | 261 | 1.0 | 5.0 | 0.00 | 0.00 | 0.00 | 45 | 1011.4 |
| 20260502002248 | 62 | 11 | 1.0 | 3.0 | 0.00 | 0.00 | 0.00 | 44 | 1011.4 |
| 20260502001745 | 62 | 11 | 1.0 | 3.0 | 0.00 | 0.00 | 0.00 | 44 | 1011.4 |
| 20260502001244 | 62 | 143 | 1.0 | 4.0 | 0.00 | 0.00 | 0.00 | 44 | 1011.4 |
| 20260502000743 | 62 | 353 | 1.0 | 4.0 | 0.00 | 0.00 | 0.00 | 45 | 1011.3 |
| 20260502000244 | 62 | 357 | 1.0 | 3.0 | 0.00 | 0.00 | 0.00 | 44 | 1011.3 |
| 20260501235743 | 62 | 326 | 1.0 | 3.0 | 0.00 | 0.00 | 0.00 | 44 | 1011.4 |
| 20260501235244 | 62 | 54 | 0.0 | 3.0 | 0.00 | 0.00 | 0.00 | 44 | 1011.3 |
| 20260501234739 | 63 | 54 | 0.0 | 3.0 | 0.00 | 0.00 | 0.00 | 43 | 1011.2 |
| 20260501234239 | 63 | 187 | 0.0 | 4.0 | 0.00 | 0.00 | 0.00 | 43 | 1011.3 |
| 20260501233738 | 63 | 82 | 1.0 | 4.0 | 0.00 | 0.00 | 0.00 | 43 | 1011.2 |
| 20260501233237 | 63 | 54 | 1.0 | 3.0 | 0.00 | 0.00 | 0.00 | 42 | 1011.1 |
| 20260501232739 | 64 | 54 | 1.0 | 3.0 | 0.00 | 0.00 | 0.00 | 42 | 1011.0 |
| 20260501232237 | 64 | 162 | 1.0 | 7.0 | 0.00 | 0.00 | 0.00 | 41 | 1011.1 |
| 20260501231740 | 64 | 353 | 1.0 | 7.0 | 0.00 | 0.00 | 0.00 | 41 | 1011.1 |
| 20260501231237 | 65 | 66 | 1.0 | 5.0 | 0.00 | 0.00 | 0.00 | 40 | 1011.0 |
| 20260501230739 | 65 | 143 | 1.0 | 5.0 | 0.00 | 0.00 | 0.00 | 40 | 1011.1 |
| 20260501230235 | 64 | 181 | 1.0 | 5.0 | 0.00 | 0.00 | 0.00 | 41 | 1011.0 |
| 20260501230037 | 64 | 92 | 1.0 | 7.0 | 0.00 | 0.00 | 0.00 | 39 | 1011.1 |
| 20260501225236 | 65 | 37 | 1.0 | 7.0 | 0.00 | 0.00 | 0.00 | 38 | 1011.1 |
| 20260501224737 | 65 | 113 | 1.0 | 4.0 | 0.00 | 0.00 | 0.00 | 39 | 1011.1 |
| 20260501224530 | 65 | 127 | 1.0 | 5.0 | 0.00 | 0.00 | 0.00 | 39 | 1011.2 |
| 20260501224032 | 65 | 178 | 1.0 | 5.0 | 0.00 | 0.00 | 0.00 | 40 | 1011.2 |
| 20260501223236 | 65 | 223 | 1.0 | 11.0 | 0.00 | 0.00 | 0.00 | 39 | 1011.2 |
| 20260501222734 | 66 | 125 | 1.0 | 11.0 | 0.00 | 0.00 | 0.00 | 38 | 1011.4 |
| 20260501222234 | 67 | 116 | 2.0 | 8.0 | 0.00 | 0.00 | 0.00 | 37 | 1011.4 |
| 20260501221735 | 67 | 37 | 2.0 | 8.0 | 0.00 | 0.00 | 0.00 | 36 | 1011.3 |
| 20260501221233 | 67 | 162 | 2.0 | 9.0 | 0.00 | 0.00 | 0.00 | 37 | 1011.1 |
| 20260501220733 | 68 | 279 | 2.0 | 9.0 | 0.00 | 0.00 | 0.00 | 35 | 1011.3 |
| 20260501220236 | 68 | 234 | 2.0 | 14.0 | 0.00 | 0.00 | 0.00 | 35 | 1011.3 |
| 20260501215736 | 68 | 160 | 2.0 | 14.0 | 0.00 | 0.00 | 0.00 | 34 | 1011.2 |
| 20260501215235 | 68 | 28 | 2.0 | 7.0 | 0.00 | 0.00 | 0.00 | 32 | 1011.3 |
| 20260501215031 | 69 | 117 | 2.0 | 7.0 | 0.00 | 0.00 | 0.00 | 33 | 1011.5 |
| 20260501214337 | 69 | 129 | 3.0 | 15.0 | 0.00 | 0.00 | 0.00 | 32 | 1011.4 |
| 20260501214313 | 69 | 184 | 2.0 | 15.0 | 0.00 | 0.00 | 0.00 | 33 | 1011.5 |
| 20260501213233 | 69 | 160 | 3.0 | 12.0 | 0.00 | 0.00 | 0.00 | 34 | 1011.5 |
| 20260501212732 | 69 | 117 | 3.0 | 12.0 | 0.00 | 0.00 | 0.00 | 31 | 1011.5 |
| 20260501212233 | 70 | 188 | 2.0 | 7.0 | 0.00 | 0.00 | 0.00 | 32 | 1011.6 |
| 20260501211731 | 69 | 162 | 3.0 | 11.0 | 0.00 | 0.00 | 0.00 | 31 | 1011.6 |
| 20260501211231 | 70 | 118 | 3.0 | 12.0 | 0.00 | 0.00 | 0.00 | 30 | 1011.6 |
| 20260501210730 | 70 | 103 | 3.0 | 12.0 | 0.00 | 0.00 | 0.00 | 32 | 1011.7 |
| 20260501210230 | 70 | 116 | 3.0 | 11.0 | 0.00 | 0.00 | 0.00 | 33 | 1011.6 |
| 20260501205732 | 69 | 143 | 3.0 | 12.0 | 0.00 | 0.00 | 0.00 | 32 | 1011.5 |
| 20260501205228 | 70 | 155 | 3.0 | 12.0 | 0.00 | 0.00 | 0.00 | 31 | 1011.5 |
| 20260501205022 | 70 | 185 | 2.0 | 9.0 | 0.00 | 0.00 | 0.00 | 32 | 1011.6 |
| 20260501204228 | 70 | 255 | 2.0 | 9.0 | 0.00 | 0.00 | 0.00 | 31 | 1011.7 |
| 20260501203729 | 70 | 82 | 3.0 | 11.0 | 0.00 | 0.00 | 0.00 | 30 | 1011.8 |
| 20260501203230 | 69 | 250 | 3.0 | 11.0 | 0.00 | 0.00 | 0.00 | 31 | 1011.9 |
| 20260501202731 | 70 | 158 | 2.0 | 11.0 | 0.00 | 0.00 | 0.00 | 31 | 1011.9 |
| 20260501202229 | 70 | 168 | 2.0 | 8.0 | 0.00 | 0.00 | 0.00 | 31 | 1012.0 |
| 20260501201729 | 69 | 65 | 2.0 | 8.0 | 0.00 | 0.00 | 0.00 | 31 | 1012.0 |
| 20260501201230 | 69 | 234 | 2.0 | 12.0 | 0.00 | 0.00 | 0.00 | 28 | 1012.2 |
| 20260501200730 | 69 | 143 | 3.0 | 12.0 | 0.00 | 0.00 | 0.00 | 32 | 1012.3 |
| 20260501200230 | 69 | 255 | 2.0 | 7.0 | 0.00 | 0.00 | 0.00 | 30 | 1012.4 |
| 20260501195731 | 68 | 28 | 2.0 | 9.0 | 0.00 | 0.00 | 0.00 | 30 | 1012.4 |
| 20260501195230 | 69 | 11 | 2.0 | 9.0 | 0.00 | 0.00 | 0.00 | 30 | 1012.5 |
| 20260501195023 | 69 | 11 | 2.0 | 8.0 | 0.00 | 0.00 | 0.00 | 31 | 1012.7 |
| 20260501194230 | 69 | 246 | 3.0 | 9.0 | 0.00 | 0.00 | 0.00 | 32 | 1012.7 |
| 20260501193730 | 69 | 100 | 3.0 | 11.0 | 0.00 | 0.00 | 0.00 | 32 | 1012.8 |
| 20260501193229 | 68 | 148 | 3.0 | 11.0 | 0.00 | 0.00 | 0.00 | 33 | 1012.8 |
| 20260501192729 | 69 | 175 | 3.0 | 8.0 | 0.00 | 0.00 | 0.00 | 32 | 1012.9 |
| 20260501192230 | 69 | 244 | 2.0 | 7.0 | 0.00 | 0.00 | 0.00 | 31 | 1013.1 |
| 20260501191730 | 69 | 143 | 2.0 | 7.0 | 0.00 | 0.00 | 0.00 | 32 | 1013.2 |
| 20260501191334 | 69 | 357 | 3.0 | 12.0 | 0.00 | 0.00 | 0.00 | 33 | 1013.1 |
| 20260501191312 | 69 | 156 | 3.0 | 12.0 | 0.00 | 0.00 | 0.00 | 33 | 1013.1 |
| 20260501190230 | 69 | 186 | 3.0 | 9.0 | 0.00 | 0.00 | 0.00 | 34 | 1013.3 |
| 20260501185731 | 69 | 234 | 3.0 | 12.0 | 0.00 | 0.00 | 0.00 | 34 | 1013.4 |
| 20260501185229 | 68 | 191 | 3.0 | 12.0 | 0.00 | 0.00 | 0.00 | 33 | 1013.5 |
| 20260501185030 | 68 | 54 | 3.0 | 11.0 | 0.00 | 0.00 | 0.00 | 34 | 1013.4 |
| 20260501184229 | 68 | 143 | 3.0 | 11.0 | 0.00 | 0.00 | 0.00 | 33 | 1013.7 |
| 20260501183729 | 68 | 165 | 3.0 | 9.0 | 0.00 | 0.00 | 0.00 | 33 | 1013.7 |
| 20260501183230 | 67 | 113 | 4.0 | 18.0 | 0.00 | 0.00 | 0.00 | 33 | 1013.8 |
| 20260501182729 | 67 | 11 | 4.0 | 18.0 | 0.00 | 0.00 | 0.00 | 34 | 1013.8 |
| 20260501182231 | 68 | 63 | 3.0 | 9.0 | 0.00 | 0.00 | 0.00 | 37 | 1014.0 |
| 20260501181730 | 68 | 171 | 2.0 | 8.0 | 0.00 | 0.00 | 0.00 | 36 | 1014.1 |
| 20260501181229 | 68 | 261 | 2.0 | 5.0 | 0.00 | 0.00 | 0.00 | 37 | 1014.1 |
| 20260501181024 | 67 | 82 | 2.0 | 14.0 | 0.00 | 0.00 | 0.00 | 36 | 1014.1 |
| 20260501180531 | 67 | 279 | 3.0 | 14.0 | 0.00 | 0.00 | 0.00 | 38 | 1014.3 |
| 20260501180022 | 66 | 180 | 4.0 | 12.0 | 0.00 | 0.00 | 0.00 | 37 | 1014.3 |
| 20260501175242 | 67 | 114 | 2.0 | 8.0 | 0.00 | 0.00 | 0.00 | 37 | 1014.4 |
| 20260501175224 | 66 | 227 | 3.0 | 12.0 | 0.00 | 0.00 | 0.00 | 38 | 1014.3 |
| 20260501174217 | 66 | 134 | 3.0 | 9.0 | 0.00 | 0.00 | 0.00 | 41 | 1014.4 |
| 20260501173719 | 65 | 87 | 4.0 | 14.0 | 0.00 | 0.00 | 0.00 | 38 | 1014.5 |
| 20260501173516 | 66 | 181 | 2.0 | 14.0 | 0.00 | 0.00 | 0.00 | 38 | 1014.5 |
| 20260501173008 | 67 | 171 | 2.0 | 9.0 | 0.00 | 0.00 | 0.00 | 37 | 1014.5 |
| 20260501172311 | 68 | 92 | 2.0 | 5.0 | 0.00 | 0.00 | 0.00 | 34 | 1014.7 |
| 20260501172247 | 67 | 156 | 2.0 | 9.0 | 0.00 | 0.00 | 0.00 | 34 | 1014.6 |
| 20260501171215 | 66 | 100 | 2.0 | 8.0 | 0.00 | 0.00 | 0.00 | 38 | 1014.7 |
| 20260501171013 | 65 | 193 | 4.0 | 15.0 | 0.00 | 0.00 | 0.00 | 34 | 1014.8 |
| 20260501170209 | 64 | 248 | 4.0 | 15.0 | 0.00 | 0.00 | 0.00 | 35 | 1014.8 |
| 20260501165710 | 65 | 275 | 3.0 | 12.0 | 0.00 | 0.00 | 0.00 | 35 | 1014.7 |
| 20260501165211 | 65 | 28 | 3.0 | 12.0 | 0.00 | 0.00 | 0.00 | 34 | 1014.9 |
| 20260501164708 | 65 | 220 | 3.0 | 9.0 | 0.00 | 0.00 | 0.00 | 36 | 1014.9 |
| 20260501164207 | 65 | 281 | 2.0 | 7.0 | 0.00 | 0.00 | 0.00 | 36 | 1014.9 |
| 20260501163708 | 65 | 143 | 2.0 | 7.0 | 0.00 | 0.00 | 0.00 | 35 | 1015.1 |